EDT,Max TemperatureF,Mean TemperatureF,Min TemperatureF,Max Dew PointF,MeanDew PointF,Min DewpointF,Max Humidity, Mean Humidity, Min Humidity, Max Sea Level PressureIn, Mean Sea Level PressureIn, Min Sea Level PressureIn, Max VisibilityMiles, Mean VisibilityMiles, Min VisibilityMiles, Max Wind SpeedMPH, Mean Wind SpeedMPH, Max Gust SpeedMPH,PrecipitationIn, CloudCover, Events, WindDirDegrees
2012-4-1,69,56,43,54,42,36,82,57,31,29.92,29.79,29.64,10,10,7,17,5,24,0.06,6,Rain,234
2012-4-2,61,51,41,52,36,30,86,59,32,30.03,29.88,29.68,10,9,6,21,5,30,0.00,4,,351
2012-4-3,74,54,34,40,30,20,92,53,14,30.04,29.95,29.81,10,10,10,12,2,17,0.00,1,,311
2012-4-4,69,57,44,46,37,21,77,49,20,29.87,29.81,29.73,10,10,10,18,5,24,0.03,4,,344
2012-4-5,57,47,36,30,27,25,76,54,32,29.96,29.89,29.85,10,10,10,16,7,22,0.00,0,,9
2012-4-6,58,46,33,27,22,13,75,49,22,30.21,30.10,29.98,10,10,10,16,7,24,0.00,0,,354
2012-4-7,62,46,30,26,20,16,69,44,18,30.32,30.24,30.19,10,10,10,13,2,20,0.00,0,,330
2012-4-8,64,49,34,34,26,18,70,47,24,30.18,30.07,29.98,10,10,10,18,5,26,0.00,3,,281
2012-4-9,58,49,40,39,30,17,82,54,26,30.04,29.94,29.84,10,10,10,21,6,32,T,6,,267
2012-4-10,54,45,36,37,26,19,92,59,26,29.98,29.88,29.83,10,10,2,20,6,30,0.00,6,,276
2012-4-11,45,39,33,34,29,21,89,67,45,30.19,30.05,29.95,10,8,2,17,4,22,0.04,7,Rain-Snow,280
2012-4-12,57,44,30,32,28,25,92,61,30,30.28,30.21,30.16,10,9,5,12,3,18,0.00,4,,288
2012-4-13,66,51,35,33,29,26,82,54,25,30.28,30.23,30.18,10,10,10,9,2,15,0.00,0,,348
2012-4-14,66,53,39,52,38,30,93,62,30,30.21,30.16,30.06,10,9,4,10,3,17,0.23,5,Rain,214
2012-4-15,81,67,53,53,50,46,93,62,30,30.09,30.02,29.97,10,8,2,15,6,24,0.00,5,,206
2012-4-16,85,75,64,53,50,45,58,45,32,30.11,29.98,29.90,10,10,10,22,8,33,0.00,1,,210
2012-4-17,65,57,49,43,38,32,63,47,31,30.35,30.27,30.14,10,10,10,10,3,16,0.00,1,,331
2012-4-18,58,53,48,49,43,34,83,65,47,30.28,30.18,30.10,10,10,10,10,2,14,T,7,Rain,28
2012-4-19,73,58,43,49,44,41,100,67,34,30.14,30.07,29.97,10,6,0,8,2,12,0.00,1,Fog,32
2012-4-20,79,62,45,48,44,40,86,58,30,29.97,29.85,29.74,10,10,10,12,3,21,0.00,1,,203
2012-4-21,63,53,42,52,47,41,96,78,60,29.91,29.82,29.71,10,8,2,14,5,16,0.14,7,Rain,343
2012-4-22,45,42,39,41,39,36,96,86,76,29.90,29.81,29.67,10,7,2,16,8,21,0.04,8,,358
2012-4-23,47,40,33,38,32,17,100,66,31,29.64,29.55,29.50,10,5,1,17,5,29,0.66,7,Rain-Snow,309
2012-4-24,57,46,34,28,20,12,57,38,18,29.73,29.61,29.55,10,10,10,18,8,29,0.00,3,,231
2012-4-25,67,53,38,39,29,25,70,45,20,29.89,29.83,29.74,10,10,10,10,2,16,0.02,3,Rain,212
2012-4-26,68,57,46,59,50,37,97,76,55,29.92,29.72,29.65,10,10,2,22,8,33,0.06,7,Rain,245
2012-4-27,55,47,38,36,30,24,76,54,32,30.25,30.12,29.95,10,10,10,14,6,18,0.00,3,,335
2012-4-28,59,48,36,38,30,26,76,56,35,30.27,30.18,30.09,10,10,9,12,3,16,0.07,6,Rain,17
2012-4-29,68,53,38,40,33,25,100,61,22,30.29,30.23,30.17,10,10,4,12,4,16,0.00,1,,9
2012-4-30,86,66,46,56,43,23,60,43,25,30.22,30.06,29.93,10,10,10,13,5,22,0.00,3,,188